Cortez, CO

2:54 PM MDT on March 27, 2017 (GMT -0600)
Cortez Municipal

Weather History for KCEZ - May, 2012

Change the Weather History Date:

Sunday, May 27, 2012

  Actual Average Record
Temperature  
Mean Temperature 48 °F 59 °F  
Max Temperature 67 °F 78 °F 91 °F (2003)
Min Temperature 28 °F 39 °F 28 °F (2012)
Degree Days  
Heating Degree Days 17 7  
Month to date heating degree days 177 272  
Since 1 July heating degree days 5892 6342  
Cooling Degree Days 0 0  
Month to date cooling degree days 9 0  
Year to date cooling degree days 9 0  
Moisture  
Dew Point 12 °F    
Average Humidity 28    
Maximum Humidity 46    
Minimum Humidity 9    
Precipitation  
Precipitation 0.00 in 0.02 in 0.00 in (2017)
Month to date precipitation 0.01 0.84  
Year to date precipitation 2.42 5.06  
Sea Level Pressure  
Sea Level Pressure 29.93 in    
Wind  
Wind Speed 8 mph (North)    
Max Wind Speed 26 mph    
Max Gust Speed 38 mph    
Visibility 10 miles    
Events      
T = Trace of Precipitation, MM = Missing Value Source: NWS Daily Summary

Daily Weather History Graph

Daily Weather History Graph

Search for Another Location

Airport or City:

Trip Planner

Search our weather history database for the weather conditions in past years. The results will help you decide how hot, cold, wet, or windy it might be!

Date:

Astronomy

May. 27, 2012 Rise Set
Actual Time 5:57 AM MDT 8:26 PM MDT
Civil Twilight 5:27 AM MDT 8:56 PM MDT
Nautical Twilight 4:50 AM MDT 9:33 PM MDT
Astronomical Twilight 4:08 AM MDT 10:15 PM MDT
Moon 12:01 PM MDT 12:39 AM MDT
Length of Visible Light 15h 29m
Length of Day
14h 28m
Waxing Crescent, 38% of the Moon is Illuminated
May 27
Waxing Crescent
May 28
First Quarter
Jun 4
Full
Jun 11
Last Quarter
Jun 19
New

Hourly Weather History & Observations

Time (MDT) Temp. Windchill Dew Point Humidity Pressure Visibility Wind Dir Wind Speed Gust Speed Precip Events Conditions
12:53 AM 36.0 °F 29.6 °F 10.0 °F 34% 29.82 in 10.0 mi ENE 8.1 mph - N/A   Clear
1:53 AM 34.0 °F 28.0 °F 10.0 °F 37% 29.83 in 10.0 mi East 6.9 mph - N/A   Clear
2:53 AM 33.1 °F 26.9 °F 12.9 °F 43% 29.83 in 10.0 mi ENE 6.9 mph - N/A   Clear
3:53 AM 32.0 °F 25.6 °F 12.0 °F 44% 29.84 in 10.0 mi ENE 6.9 mph - N/A   Clear
4:53 AM 32.0 °F 25.6 °F 12.0 °F 44% 29.86 in 10.0 mi East 6.9 mph - N/A   Clear
5:53 AM 28.9 °F 23.9 °F 10.9 °F 47% 29.90 in 10.0 mi ENE 4.6 mph - N/A   Clear
6:53 AM 35.1 °F 31.0 °F 14.0 °F 42% 29.93 in 10.0 mi East 4.6 mph - N/A   Clear
7:53 AM 44.1 °F 42.5 °F 15.1 °F 31% 29.92 in 10.0 mi Variable 3.5 mph - N/A   Clear
8:53 AM 52.0 °F - 16.0 °F 24% 29.92 in 10.0 mi Variable 3.5 mph - N/A   Clear
9:53 AM 55.0 °F - 17.1 °F 23% 29.92 in 10.0 mi Variable 5.8 mph - N/A   Clear
10:53 AM 57.9 °F - 17.1 °F 20% 29.93 in 10.0 mi West 8.1 mph - N/A   Clear
11:53 AM 63.0 °F - 15.1 °F 16% 29.96 in 10.0 mi South 13.8 mph 26.5 mph N/A   Partly Cloudy
12:53 PM 62.1 °F - 10.9 °F 13% 29.96 in 10.0 mi WSW 12.7 mph 25.3 mph N/A   Partly Cloudy
1:53 PM 60.1 °F - 10.9 °F 14% 29.98 in 10.0 mi Variable 4.6 mph 24.2 mph N/A   Scattered Clouds
2:53 PM 63.0 °F - 10.0 °F 13% 29.97 in 10.0 mi West 11.5 mph 25.3 mph N/A   Partly Cloudy
3:53 PM 64.9 °F - 10.9 °F 12% 29.95 in 10.0 mi West 13.8 mph 26.5 mph N/A   Clear
4:53 PM 64.9 °F - 9.0 °F 11% 29.95 in 10.0 mi WSW 11.5 mph 19.6 mph N/A   Clear
5:36 PM 64.4 °F - 6.8 °F 10% 30.06 in 10.0 mi West 9.2 mph 21.9 mph N/A   Clear
5:53 PM 64.9 °F - 6.1 °F 10% 29.97 in 10.0 mi WNW 12.7 mph 20.7 mph N/A   Clear
6:53 PM 64.0 °F - 5.0 °F 10% 29.95 in 10.0 mi West 13.8 mph 23.0 mph N/A   Clear
7:53 PM 61.0 °F - 7.0 °F 12% 29.94 in 10.0 mi West 6.9 mph - N/A   Clear
8:53 PM 50.0 °F - 12.0 °F 22% 29.96 in 10.0 mi SSE 6.9 mph - N/A   Clear
9:53 PM 43.0 °F - 14.0 °F 31% 29.99 in 10.0 mi Calm Calm - N/A   Clear
10:53 PM 39.9 °F 34.5 °F 12.0 °F 32% 30.00 in 10.0 mi ENE 8.1 mph - N/A   Clear
11:53 PM 39.0 °F 33.4 °F 12.0 °F 33% 29.99 in 10.0 mi ENE 8.1 mph - N/A   Clear